Tracking 31027 objects as of 19-Jul-2025
HD Live streaming from Space Station
objects crossing your sky now

CZ-3C DEB

Track CZ-3C DEB now!


NORAD ID: 39352
Int'l Code: 2010-057S
Perigee: 599.3 km
Apogee: 36,868.1 km
Inclination: 20.9 °
Period: 659.8 minutes
Semi major axis: 25104 km
RCS: 0.6339 m2 (medium)
Launch date: October 31, 2010
Source: People's Republic of China (PRC)
Launch site: Xichang Space Center, China (XSC)

Note: This is SATELLITE DEBRIS
Your satellite tracking list
FENGYUN 1C DEB
Track 1 satellite(s)




NASA's NSSDC Master Catalog

Two Line Element Set (TLE):
1 39352U 10057S   25198.45731014  .00000054  00000-0  25054-2 0  9992
2 39352  20.8700 271.7480 7223510 189.3568 349.2771  2.18257860 93712
Source of the keplerian elements: AFSPC